When you browse on this site, cookies collect data to enhance your experience and personalize the content and advertising you see.
Visit our Privacy Policy to learn more. By continuing to use the site, you agree to this use of cookies and data.
  • In Sweden
  • List of Countries
  • For 7 days
  • Water Temperature
  • Satellite Maps
  • Weather Map
  • Weather Widgets
  • user-avatar
    Login

    Hourly Weather Verhniy Lomov

    Today, 24 May, Friday

    Time Temperature Precipitation Wind Pressure Humidity
    00:00 +15°C° 0.7 mm 2 mps 739 mmHg 90%
    01:00 +14°C° 0 mm 2 mps 739 mmHg 92%
    02:00 +13°C° 0 mm 3 mps 739 mmHg 94%
    03:00 +12°C° 0 mm 3 mps 739 mmHg 95%
    04:00 +12°C° 0 mm 4 mps 740 mmHg 94%
    05:00 +12°C° 0 mm 5 mps 740 mmHg 94%
    06:00 +11°C° 0 mm 6 mps 741 mmHg 93%
    07:00 +11°C° 0 mm 6 mps 742 mmHg 91%
    08:00 +11°C° 0 mm 6 mps 742 mmHg 89%
    09:00 +13°C° 0 mm 6 mps 743 mmHg 86%
    10:00 +13°C° 0 mm 5 mps 743 mmHg 82%
    11:00 +13°C° 0 mm 5 mps 744 mmHg 79%
    12:00 +13°C° 0 mm 5 mps 744 mmHg 75%
    13:00 +14°C° 0 mm 5 mps 745 mmHg 71%
    14:00 +15°C° 0 mm 5 mps 745 mmHg 67%
    15:00 +15°C° 0 mm 5 mps 745 mmHg 63%
    16:00 +15°C° 0 mm 5 mps 746 mmHg 63%
    17:00 +14°C° 0 mm 4 mps 746 mmHg 64%
    18:00 +13°C° 0 mm 4 mps 746 mmHg 65%
    19:00 +12°C° 0 mm 4 mps 747 mmHg 69%
    20:00 +10°C° 0 mm 4 mps 747 mmHg 72%
    21:00 +9°C° 0 mm 3 mps 748 mmHg 76%
    22:00 +8°C° 0 mm 3 mps 748 mmHg 76%
    23:00 +8°C° 0 mm 3 mps 748 mmHg 76%

    Tomorrow, 25 May, Saturday

    Time Temperature Precipitation Wind Pressure Humidity
    00:00 +6°C° 0 mm 4 mps 748 mmHg 75%
    01:00 +6°C° 0 mm 4 mps 749 mmHg 75%
    02:00 +5°C° 0 mm 4 mps 749 mmHg 75%
    03:00 +5°C° 0 mm 4 mps 749 mmHg 75%
    04:00 +6°C° 0 mm 4 mps 749 mmHg 73%
    05:00 +6°C° 0 mm 5 mps 749 mmHg 71%
    06:00 +7°C° 0 mm 5 mps 749 mmHg 68%
    07:00 +8°C° 0 mm 5 mps 749 mmHg 65%
    08:00 +9°C° 0 mm 6 mps 749 mmHg 61%
    09:00 +11°C° 0 mm 6 mps 749 mmHg 57%
    10:00 +13°C° 0 mm 6 mps 749 mmHg 56%
    11:00 +14°C° 0 mm 6 mps 749 mmHg 55%
    12:00 +15°C° 0 mm 6 mps 748 mmHg 54%
    13:00 +16°C° 0 mm 6 mps 748 mmHg 55%
    14:00 +16°C° 0 mm 6 mps 748 mmHg 56%
    15:00 +17°C° 0 mm 6 mps 747 mmHg 56%
    16:00 +17°C° 0 mm 6 mps 747 mmHg 60%
    17:00 +16°C° 0 mm 5 mps 746 mmHg 63%
    18:00 +16°C° 0 mm 5 mps 746 mmHg 67%
    19:00 +15°C° 0 mm 5 mps 746 mmHg 68%
    20:00 +14°C° 0 mm 5 mps 746 mmHg 69%
    21:00 +13°C° 0 mm 5 mps 746 mmHg 70%
    22:00 +13°C° 0 mm 5 mps 745 mmHg 68%
    23:00 +13°C° 0 mm 5 mps 745 mmHg 67%

    Day after tomorrow, 26 May, Sunday

    Time Temperature Precipitation Wind Pressure Humidity
    00:00 +13°C° 0 mm 6 mps 745 mmHg 65%
    01:00 +11°C° 0.1 mm 6 mps 745 mmHg 67%
    02:00 +11°C° 0.1 mm 6 mps 744 mmHg 70%
    03:00 +10°C° 0.1 mm 5 mps 744 mmHg 72%
    04:00 +10°C° 0.8 mm 5 mps 744 mmHg 76%
    05:00 +10°C° 0.8 mm 5 mps 744 mmHg 79%
    06:00 +9°C° 0.8 mm 5 mps 743 mmHg 82%
    07:00 +10°C° 0.7 mm 5 mps 743 mmHg 82%
    08:00 +10°C° 0.7 mm 5 mps 743 mmHg 82%
    09:00 +12°C° 0.7 mm 5 mps 743 mmHg 83%
    10:00 +13°C° 0.1 mm 5 mps 743 mmHg 79%
    11:00 +15°C° 0.1 mm 6 mps 743 mmHg 75%
    12:00 +17°C° 0.1 mm 6 mps 743 mmHg 71%
    13:00 +17°C° 0.1 mm 6 mps 742 mmHg 75%
    14:00 +16°C° 0.1 mm 5 mps 742 mmHg 78%
    15:00 +16°C° 0.1 mm 5 mps 741 mmHg 82%
    16:00 +17°C° 0 mm 5 mps 741 mmHg 82%
    17:00 +17°C° 0 mm 5 mps 741 mmHg 81%
    18:00 +19°C° 0 mm 5 mps 740 mmHg 81%
    19:00 +18°C° 0 mm 4 mps 740 mmHg 84%
    20:00 +17°C° 0 mm 4 mps 740 mmHg 88%
    21:00 +15°C° 0 mm 4 mps 740 mmHg 91%
    22:00 +14°C° 0 mm 3 mps 740 mmHg 93%
    23:00 +14°C° 0 mm 3 mps 740 mmHg 94%

    27 May, Monday

    Time Temperature Precipitation Wind Pressure Humidity
    00:00 +13°C° 0 mm 3 mps 739 mmHg 96%
    01:00 +14°C° 0 mm 2 mps 739 mmHg 96%
    02:00 +13°C° 0 mm 2 mps 739 mmHg 97%
    03:00 +13°C° 0 mm 2 mps 739 mmHg 97%
    04:00 +13°C° 0 mm 2 mps 739 mmHg 96%
    05:00 +13°C° 0 mm 3 mps 740 mmHg 95%
    06:00 +14°C° 0 mm 3 mps 740 mmHg 95%
    07:00 +15°C° 0 mm 4 mps 741 mmHg 91%
    08:00 +18°C° 0 mm 4 mps 741 mmHg 87%
    09:00 +19°C° 0 mm 5 mps 742 mmHg 83%
    10:00 +20°C° 0.1 mm 5 mps 742 mmHg 76%
    11:00 +21°C° 0.1 mm 6 mps 742 mmHg 69%
    12:00 +22°C° 0.1 mm 6 mps 743 mmHg 62%
    13:00 +22°C° 0 mm 6 mps 743 mmHg 61%
    14:00 +22°C° 0 mm 6 mps 744 mmHg 59%
    15:00 +22°C° 0 mm 6 mps 744 mmHg 58%
    16:00 +22°C° 0 mm 5 mps 745 mmHg 62%
    17:00 +21°C° 0 mm 5 mps 745 mmHg 66%
    18:00 +21°C° 0 mm 4 mps 745 mmHg 71%
    19:00 +19°C° 0 mm 3 mps 746 mmHg 76%
    20:00 +17°C° 0 mm 3 mps 746 mmHg 81%
    21:00 +16°C° 0 mm 3 mps 747 mmHg 86%
    22:00 +14°C° 0 mm 3 mps 747 mmHg 87%
    23:00 +15°C° 0 mm 2 mps 747 mmHg 89%

    28 May, Tuesday

    Time Temperature Precipitation Wind Pressure Humidity
    00:00 +14°C° 0 mm 2 mps 748 mmHg 90%
    01:00 +14°C° 0 mm 2 mps 748 mmHg 91%
    02:00 +14°C° 0 mm 2 mps 748 mmHg 91%
    03:00 +13°C° 0 mm 2 mps 748 mmHg 92%
    04:00 +14°C° 0 mm 2 mps 749 mmHg 90%
    05:00 +15°C° 0 mm 2 mps 749 mmHg 88%
    06:00 +15°C° 0 mm 2 mps 749 mmHg 86%
    07:00 +17°C° 0 mm 2 mps 750 mmHg 78%
    08:00 +19°C° 0 mm 2 mps 750 mmHg 71%
    09:00 +20°C° 0 mm 2 mps 750 mmHg 63%
    10:00 +21°C° 0 mm 3 mps 750 mmHg 61%
    11:00 +22°C° 0 mm 3 mps 750 mmHg 58%
    12:00 +24°C° 0 mm 3 mps 750 mmHg 56%
    13:00 +25°C° 0 mm 3 mps 750 mmHg 56%
    14:00 +25°C° 0 mm 3 mps 750 mmHg 57%
    15:00 +25°C° 0 mm 3 mps 750 mmHg 58%
    16:00 +25°C° 0 mm 2 mps 750 mmHg 61%
    17:00 +25°C° 0 mm 2 mps 750 mmHg 65%
    18:00 +25°C° 0 mm 1 mps 750 mmHg 68%
    19:00 +24°C° 0 mm 2 mps 750 mmHg 73%
    20:00 +21°C° 0 mm 2 mps 750 mmHg 78%
    21:00 +19°C° 0 mm 2 mps 750 mmHg 83%
    22:00 +19°C° 0 mm 2 mps 750 mmHg 86%
    23:00 +18°C° 0 mm 2 mps 750 mmHg 89%

    29 May, Wednesday

    Time Temperature Precipitation Wind Pressure Humidity
    00:00 +18°C° 0 mm 2 mps 750 mmHg 91%
    01:00 +18°C° 0 mm 2 mps 750 mmHg 92%
    02:00 +18°C° 0 mm 2 mps 751 mmHg 93%
    03:00 +17°C° 0 mm 2 mps 751 mmHg 94%
    04:00 +18°C° 0 mm 2 mps 751 mmHg 92%
    05:00 +19°C° 0 mm 2 mps 751 mmHg 91%
    06:00 +20°C° 0 mm 3 mps 751 mmHg 89%
    07:00 +21°C° 0 mm 3 mps 751 mmHg 83%
    08:00 +24°C° 0 mm 3 mps 751 mmHg 77%
    09:00 +26°C° 0 mm 3 mps 751 mmHg 72%
    10:00 +27°C° 0 mm 3 mps 751 mmHg 68%
    11:00 +28°C° 0 mm 3 mps 751 mmHg 64%
    12:00 +28°C° 0 mm 4 mps 751 mmHg 60%
    13:00 +29°C° 0.1 mm 4 mps 751 mmHg 60%
    14:00 +29°C° 0.1 mm 4 mps 751 mmHg 59%
    15:00 +29°C° 0.1 mm 4 mps 750 mmHg 59%
    16:00 +29°C° 0.1 mm 3 mps 750 mmHg 63%
    17:00 +28°C° 0.1 mm 3 mps 750 mmHg 67%
    18:00 +28°C° 0.1 mm 2 mps 750 mmHg 71%
    19:00 +26°C° 0 mm 2 mps 750 mmHg 75%
    20:00 +25°C° 0 mm 2 mps 750 mmHg 78%
    21:00 +23°C° 0 mm 2 mps 750 mmHg 82%
    22:00 +21°C° 0 mm 2 mps 750 mmHg 84%
    23:00 +21°C° 0 mm 2 mps 750 mmHg 86%
    Show more